WXM80 ListenWXM80 Stop

You find our weather info also at:

UK Metoffice

WeatherCloud

Weather Underground

Northeastern Weather Network

AWEKAS

Citizen Weather Observer Program (CWOP)

HAMweather, WeatherForYou, PWS Weather


Weather Underground History page Text

Daily Summary for February 4, 2018 Units:  Metric    English   Both
« Previous Day
Next Day »
Daily Weekly Monthly Yearly Custom
  High: Low: Average:
Temperature: 9.2 °C -1.1 °C 4.5 °C
Dew Point: 8.7 °C -7.6 °C 0.5 °C
Humidity: 97 % 59 % 76 %
Wind Speed: 12.1 km/h 0 km/h 4.2 km/h
Wind Gust: 20.9 km/h - -
Wind:- - SSW
Pressure: 1019.5 hPa 993.1 hPa -
Precipitation: 20.83 mm    
Historical Graphs
 
 
Tabular Data for February 4, 2018
Time Temperature Dew Point Pressure Wind Wind Speed Wind Gust Humidity Rainfall Rate (Hourly)
00:03 -1.1 °C -7.6 °C 1019.2 hPa SSW 8.4 km/h 18.5 km/h 61 % 0 mm
00:08 -1 °C -7.4 °C 1019.5 hPa SW 5.1 km/h 8 km/h 62 % 0 mm
00:13 -0.9 °C -7.1 °C 1019.5 hPa SSW 4.5 km/h 9.3 km/h 63 % 0 mm
00:18 -0.9 °C -7.1 °C 1019.2 hPa SSW 9.2 km/h 18.5 km/h 63 % 0 mm
00:23 -0.8 °C -6.8 °C 1019.2 hPa SSW 10 km/h 14.8 km/h 64 % 0 mm
00:28 -0.8 °C -6.7 °C 1019.2 hPa SW 2.4 km/h 12.9 km/h 64 % 0 mm
00:33 -0.7 °C -6.7 °C 1019.2 hPa SSW 8.9 km/h 9.3 km/h 64 % 0 mm
00:38 -0.7 °C -6.8 °C 1019.2 hPa SSW 5.1 km/h 8 km/h 63 % 0 mm
00:44 -0.6 °C -6.8 °C 1019.2 hPa SSW 5.6 km/h 11.3 km/h 63 % 0 mm
00:49 -0.6 °C -6.8 °C 1019.2 hPa SSW 5.6 km/h 5.6 km/h 63 % 0 mm
00:54 -0.6 °C -6.7 °C 1019.2 hPa SW 2.9 km/h 11.1 km/h 63 % 0 mm
00:59 -0.6 °C -6.7 °C 1019.2 hPa South 5.5 km/h 13 km/h 63 % 0 mm
01:04 -0.5 °C -6.9 °C 1019.2 hPa SW 6.6 km/h 13 km/h 62 % 0 mm
01:09 -0.4 °C -7.1 °C 1019.2 hPa SSW 4.5 km/h 11.3 km/h 61 % 0 mm
01:14 -0.4 °C -7 °C 1019.2 hPa SSW 3.4 km/h 9.3 km/h 61 % 0 mm
01:19 -0.4 °C -7.2 °C 1019.2 hPa SSW 8.4 km/h 11.3 km/h 60 % 0 mm
01:24 -0.4 °C -7.2 °C 1019.2 hPa SW 5.6 km/h 12.9 km/h 60 % 0 mm
01:29 -0.3 °C -7.2 °C 1018.8 hPa SSW 4 km/h 7.4 km/h 60 % 0 mm
01:34 -0.3 °C -7.2 °C 1018.8 hPa SSW 7.2 km/h 9.3 km/h 60 % 0 mm
01:39 -0.4 °C -7.2 °C 1019.2 hPa SSW 9.2 km/h 16.7 km/h 60 % 0 mm
01:44 -0.3 °C -7.2 °C 1018.8 hPa SSW 6.9 km/h 13 km/h 60 % 0 mm
01:49 -0.3 °C -7.2 °C 1018.8 hPa SW 7.1 km/h 9.7 km/h 60 % 0 mm
01:54 -0.4 °C -7.2 °C 1018.8 hPa SSW 1.8 km/h 9.3 km/h 60 % 0 mm
01:59 -0.3 °C -7.2 °C 1018.8 hPa SSW 2.9 km/h 6.4 km/h 60 % 0 mm
02:04 -0.3 °C -6.9 °C 1018.8 hPa SW 6.6 km/h 9.3 km/h 61 % 0 mm
02:10 -0.3 °C -6.9 °C 1018.8 hPa South 1.3 km/h 5.6 km/h 61 % 0 mm
02:15 -0.3 °C -6.9 °C 1018.8 hPa SSW 4 km/h 9.3 km/h 61 % 0 mm
02:20 -0.3 °C -6.9 °C 1018.5 hPa South 5.5 km/h 9.3 km/h 61 % 0 mm
02:25 -0.3 °C -6.9 °C 1018.5 hPa SSW 5.1 km/h 13 km/h 61 % 0 mm
02:30 -0.3 °C -6.9 °C 1018.5 hPa South 4 km/h 7.4 km/h 61 % 0 mm
02:35 -0.3 °C -7.1 °C 1018.5 hPa SSW 5.8 km/h 9.3 km/h 60 % 0 mm
02:40 -0.3 °C -7.1 °C 1018.5 hPa SSW 4.8 km/h 9.3 km/h 60 % 0 mm
02:45 -0.2 °C -7.1 °C 1018.5 hPa SW 3.7 km/h 7.4 km/h 60 % 0 mm
02:50 -0.2 °C -7.1 °C 1018.5 hPa SSW 4.2 km/h 6.4 km/h 60 % 0 mm
02:55 -0.2 °C -7.1 °C 1018.5 hPa SSW 2.9 km/h 5.6 km/h 60 % 0 mm
03:00 -0.2 °C -7.1 °C 1018.5 hPa SSW 2.1 km/h 5.6 km/h 60 % 0 mm
03:05 -0.2 °C -6.8 °C 1018.5 hPa SSW 6 km/h 6.4 km/h 61 % 0 mm
03:10 -0.2 °C -6.8 °C 1018.5 hPa SW 5.5 km/h 7.4 km/h 61 % 0 mm
03:15 -0.2 °C -6.8 °C 1018.2 hPa SW 1.3 km/h 5.6 km/h 61 % 0 mm
03:20 -0.2 °C -6.8 °C 1018.2 hPa Calm     61 % 0 mm
03:25 -0.2 °C -6.6 °C 1018.5 hPa SSW 1.3 km/h 5.6 km/h 62 % 0 mm
03:31 -0.1 °C -6.5 °C 1018.8 hPa WSW 4.7 km/h 8 km/h 62 % 0 mm
03:36 -0.1 °C -6.5 °C 1018.5 hPa SW 1.6 km/h 8 km/h 62 % 0 mm
03:41 0 °C -6.4 °C 1018.2 hPa Calm   6.4 km/h 62 % 0 mm
03:46 0.1 °C -6.2 °C 1018.2 hPa SSW 1.6 km/h 9.7 km/h 63 % 0 mm
03:51 0.1 °C -6.2 °C 1018.2 hPa SSW 1.6 km/h 9.7 km/h 63 % 0 mm
03:56 0.1 °C -6.1 °C 1018.2 hPa SW 3.2 km/h 5.6 km/h 63 % 0 mm
04:01 0.2 °C -6.1 °C 1017.8 hPa SSW 4 km/h 9.3 km/h 63 % 0 mm
04:06 0.2 °C -6 °C 1017.8 hPa South 3.9 km/h 13 km/h 63 % 0 mm
04:11 0.3 °C -5.9 °C 1017.8 hPa SW 6.1 km/h 9.3 km/h 63 % 0 mm
04:16 0.3 °C -6.1 °C 1018.2 hPa SW 4 km/h 11.1 km/h 62 % 0 mm
04:21 0.4 °C -6.1 °C 1017.8 hPa SW 5.3 km/h 9.3 km/h 62 % 0 mm
04:26 0.4 °C -6 °C 1017.8 hPa SSW 3.5 km/h 9.3 km/h 62 % 0 mm
04:31 0.4 °C -6 °C 1018.2 hPa WSW 8.7 km/h 14.8 km/h 62 % 0 mm
04:36 0.5 °C -5.9 °C 1017.8 hPa South 7.6 km/h 11.1 km/h 62 % 0 mm
04:41 0.6 °C -5.9 °C 1017.8 hPa SSW 0.3 km/h 5.6 km/h 62 % 0 mm
04:46 0.6 °C -5.7 °C 1018.2 hPa SSW 5 km/h 5.6 km/h 63 % 0 mm
04:51 0.6 °C -5.7 °C 1018.2 hPa SSW 2.4 km/h 5.6 km/h 63 % 0 mm
04:56 0.6 °C -5.6 °C 1018.2 hPa SSW 4.3 km/h 6.4 km/h 63 % 0 mm
05:01 0.7 °C -5.4 °C 1018.2 hPa South 6.6 km/h 11.1 km/h 64 % 0 mm
05:06 0.7 °C -5.4 °C 1018.2 hPa South 6.6 km/h 8 km/h 64 % 0 mm
05:12 0.7 °C -5.4 °C 1017.8 hPa SW 2.9 km/h 6.4 km/h 64 % 0 mm
05:17 0.7 °C -5.2 °C 1017.8 hPa SSW 6.3 km/h 11.1 km/h 65 % 0 mm
05:22 0.7 °C -5.1 °C 1017.8 hPa SSW 3.4 km/h 7.4 km/h 65 % 0 mm
05:27 0.7 °C -4.9 °C 1017.8 hPa SSE 8.2 km/h 12.9 km/h 66 % 0 mm
05:32 0.8 °C -4.7 °C 1017.5 hPa SSW 4.5 km/h 13 km/h 67 % 0 mm
05:37 0.8 °C -4.6 °C 1017.5 hPa South 6 km/h 9.3 km/h 67 % 0 mm
05:42 0.9 °C -4.3 °C 1017.2 hPa SW 7.7 km/h 13 km/h 68 % 0 mm
05:47 0.9 °C -4.1 °C 1016.8 hPa SSW 7.6 km/h 18.5 km/h 69 % 0 mm
05:52 1.1 °C -4 °C 1017.2 hPa South 7.4 km/h 11.1 km/h 69 % 0 mm
05:57 1.1 °C -3.9 °C 1016.8 hPa South 7.4 km/h 14.5 km/h 69 % 0 mm
06:02 1.2 °C -3.9 °C 1016.8 hPa SSW 4.3 km/h 11.3 km/h 69 % 0 mm
06:07 1.2 °C -3.8 °C 1016.8 hPa SSW 5.1 km/h 11.3 km/h 69 % 0 mm
06:12 1.3 °C -3.8 °C 1016.8 hPa SSW 3.1 km/h 13 km/h 69 % 0 mm
06:17 1.3 °C -3.8 °C 1016.5 hPa SW 1.9 km/h 11.1 km/h 69 % 0 mm
06:22 1.3 °C -3.7 °C 1016.5 hPa SW 4.7 km/h 5.6 km/h 69 % 0 mm
06:27 1.4 °C -3.7 °C 1016.5 hPa SW 3.9 km/h 7.4 km/h 69 % 0 mm
06:32 1.4 °C -3.6 °C 1016.5 hPa South 6.1 km/h 11.1 km/h 69 % 0 mm
06:37 1.5 °C -3.6 °C 1016.5 hPa SW 11.3 km/h 13 km/h 69 % 0 mm
06:43 1.6 °C -3.5 °C 1016.5 hPa South 6.8 km/h 11.3 km/h 69 % 0 mm
06:48 1.6 °C -3.5 °C 1016.5 hPa SSW 2.3 km/h 9.3 km/h 69 % 0 mm
06:53 1.7 °C -3.4 °C 1016.5 hPa SSW 5 km/h 9.3 km/h 69 % 0 mm
06:58 1.7 °C -3.6 °C 1016.5 hPa SW 2.7 km/h 7.4 km/h 68 % 0 mm
07:03 1.7 °C -3.6 °C 1016.5 hPa SSW 6 km/h 9.3 km/h 68 % 0 mm
07:08 1.8 °C -3.5 °C 1016.8 hPa WSW 5.8 km/h 12.9 km/h 68 % 0 mm
07:13 1.8 °C -3.7 °C 1016.8 hPa SSW 5.6 km/h 9.7 km/h 67 % 0 mm
07:18 1.9 °C -3.6 °C 1016.5 hPa SSW 5 km/h 5.6 km/h 67 % 0 mm
07:23 1.9 °C -3.6 °C 1016.5 hPa SSW 7.9 km/h 11.1 km/h 67 % 0 mm
07:28 2 °C -3.7 °C 1016.5 hPa SSW 3.2 km/h 9.3 km/h 66 % 0 mm
07:33 2.1 °C -3.7 °C 1016.1 hPa SSW 5.6 km/h 9.3 km/h 66 % 0 mm
07:38 2.1 °C -3.4 °C 1016.1 hPa South 2.6 km/h 7.4 km/h 67 % 0 mm
07:43 2.1 °C -3.4 °C 1016.1 hPa South 4 km/h 7.4 km/h 67 % 0 mm
07:48 2.2 °C -3.3 °C 1016.5 hPa South 4.5 km/h 7.4 km/h 67 % 0 mm
07:53 2.2 °C -3.3 °C 1016.1 hPa South 0.2 km/h 1.9 km/h 67 % 0 mm
07:58 2.2 °C -3.3 °C 1016.5 hPa South 0.5 km/h 5.6 km/h 67 % 0 mm
08:03 2.3 °C -3 °C 1016.5 hPa SW 2.1 km/h 5.6 km/h 68 % 0 mm
08:08 2.3 °C -3 °C 1016.5 hPa SW 2.1 km/h 7.4 km/h 68 % 0 mm
08:13 2.4 °C -2.7 °C 1016.1 hPa South 2.6 km/h 5.6 km/h 69 % 0 mm
08:18 2.5 °C -2.4 °C 1016.5 hPa South 3.9 km/h 5.6 km/h 70 % 0 mm
08:23 2.6 °C -2.3 °C 1016.1 hPa WSW 5 km/h 14.8 km/h 70 % 0 mm
08:29 2.7 °C -2 °C 1016.5 hPa SSW 1.8 km/h 7.4 km/h 71 % 0 mm
08:34 2.8 °C -1.9 °C 1016.1 hPa South 6.1 km/h 9.3 km/h 71 % 0 mm
08:39 3 °C -1.7 °C 1016.1 hPa SSW 3.4 km/h 7.4 km/h 71 % 0 mm
08:44 3.2 °C -1.6 °C 1015.8 hPa SSW 1.3 km/h 5.6 km/h 71 % 0 mm
08:49 3.3 °C -1.3 °C 1015.8 hPa SSW 3.2 km/h 8 km/h 72 % 0 mm
08:54 3.4 °C -1.1 °C 1015.8 hPa South 8.7 km/h 18.5 km/h 72 % 0 mm
08:59 3.6 °C -0.8 °C 1015.8 hPa SSW 9 km/h 11.3 km/h 73 % 0 mm
09:04 3.8 °C -0.6 °C 1015.8 hPa SSW 3.9 km/h 9.3 km/h 73 % 0 mm
09:09 4 °C -0.4 °C 1015.8 hPa SSW 7.2 km/h 11.3 km/h 73 % 0 mm
09:14 4.2 °C -0.2 °C 1016.1 hPa SSW 5.3 km/h 7.4 km/h 73 % 0 mm
09:19 4.3 °C -0.1 °C 1016.1 hPa SSW 8.4 km/h 9.7 km/h 73 % 0 mm
09:24 4.4 °C -0.1 °C 1016.1 hPa SW 12.1 km/h 16.7 km/h 73 % 0 mm
09:29 4.5 °C -0.1 °C 1016.1 hPa SSW 5.6 km/h 9.3 km/h 72 % 0 mm
09:34 4.6 °C -0.1 °C 1016.1 hPa SSW 8.9 km/h 11.3 km/h 72 % 0 mm
09:39 4.7 °C -0.2 °C 1015.8 hPa SSW 7.4 km/h 11.3 km/h 71 % 0 mm
09:44 4.8 °C -0.1 °C 1015.8 hPa South 7.9 km/h 11.1 km/h 71 % 0 mm
09:49 4.9 °C -0.1 °C 1015.8 hPa SSW 9.3 km/h 13 km/h 70 % 0 mm
09:55 5.1 °C 0.1 °C 1015.5 hPa South 8.4 km/h 9.7 km/h 70 % 0 mm
10:00 5.3 °C 0.1 °C 1015.5 hPa South 8.2 km/h 14.8 km/h 69 % 0 mm
10:05 5.3 °C -0.1 °C 1015.5 hPa South 4.7 km/h 9.3 km/h 68 % 0 mm
10:10 5.4 °C -0.2 °C 1015.1 hPa South 6.4 km/h 13 km/h 67 % 0 mm
10:15 5.6 °C -0.3 °C 1015.5 hPa SSW 8.4 km/h 13 km/h 66 % 0 mm
10:20 5.7 °C -0.6 °C 1015.1 hPa South 7.4 km/h 16.1 km/h 64 % 0 mm
10:25 5.8 °C -0.3 °C 1015.1 hPa South 6.1 km/h 11.1 km/h 65 % 0 mm
10:30 5.9 °C -0.6 °C 1014.8 hPa South 3.4 km/h 7.4 km/h 63 % 0 mm
10:35 5.9 °C -0.6 °C 1014.8 hPa South 6.3 km/h 11.3 km/h 63 % 0 mm
10:40 6.1 °C -0.9 °C 1014.8 hPa SSW 7.4 km/h 11.1 km/h 61 % 0 mm
10:45 6.2 °C -1 °C 1014.8 hPa SSW 10.9 km/h 18.5 km/h 60 % 0 mm
10:50 6.4 °C -1 °C 1014.4 hPa SSW 8 km/h 16.7 km/h 59 % 0 mm
10:55 6.6 °C -0.6 °C 1014.1 hPa South 5.5 km/h 9.3 km/h 60 % 0 mm
11:00 6.9 °C -0.6 °C 1014.1 hPa South 7.6 km/h 11.1 km/h 59 % 0 mm
11:05 7.2 °C -0.1 °C 1014.1 hPa SSW 4.8 km/h 13 km/h 60 % 0 mm
11:10 7.4 °C 0.4 °C 1013.8 hPa South 10.1 km/h 16.1 km/h 61 % 0 mm
11:15 7.7 °C 0.8 °C 1013.8 hPa SSW 8.4 km/h 11.1 km/h 62 % 0 mm
11:20 7.8 °C 1.2 °C 1013.4 hPa South 4.8 km/h 14.5 km/h 63 % 0 mm
11:26 7.8 °C 1.7 °C 1013.1 hPa South 11.3 km/h 19.3 km/h 65 % 0 mm
11:30 7.8 °C 1.9 °C 1013.1 hPa South 8 km/h 16.1 km/h 66 % 0 mm
11:35 7.8 °C 1.8 °C 1012.8 hPa SSE 8 km/h 16.1 km/h 66 % 0 mm
11:40 7.7 °C 2.2 °C 1012.8 hPa South 9.7 km/h 19.3 km/h 68 % 0 mm
11:45 7.7 °C 2.3 °C 1012.4 hPa South 4.8 km/h 19.3 km/h 69 % 0 mm
11:50 7.6 °C 2.7 °C 1012.1 hPa SSE 8 km/h 20.9 km/h 71 % 0 mm
11:55 7.7 °C 2.9 °C 1012.1 hPa SSE 11.3 km/h 20.9 km/h 72 % 0 mm
12:01 7.7 °C 3.2 °C 1012.1 hPa SSW 5.8 km/h 9.7 km/h 73 % 0 mm
12:06 7.9 °C 3.6 °C 1011.7 hPa South 8 km/h 14.5 km/h 74 % 0 mm
12:10 8 °C 3.4 °C 1011.7 hPa South 1.6 km/h 8 km/h 73 % 0 mm
12:15 8.1 °C 3.6 °C 1011.7 hPa South 8 km/h 14.5 km/h 73 % 0 mm
12:21 8.2 °C 3.8 °C 1011.4 hPa South 4.8 km/h 20.9 km/h 74 % 0 mm
12:26 8.1 °C 3.8 °C 1011.1 hPa South 4.8 km/h 9.7 km/h 74 % 0 mm
12:30 8.1 °C 3.9 °C 1011.1 hPa South 8 km/h 11.3 km/h 75 % 0 mm
12:35 8.1 °C 3.9 °C 1010.7 hPa SSW 4.8 km/h 11.3 km/h 75 % 0 mm
12:40 8.2 °C 4.2 °C 1010.7 hPa South 4.8 km/h 11.3 km/h 76 % 0 mm
12:45 8.2 °C 4.2 °C 1010.7 hPa South 4.8 km/h 11.3 km/h 76 % 0 mm
12:48 8.2 °C 4.2 °C 1010.7 hPa SSW 4.5 km/h 8 km/h 76 % 0 mm
12:53 8.3 °C 4.6 °C 1010.4 hPa SE 3.7 km/h 11.1 km/h 77 % 0 mm
12:58 8.4 °C 4.7 °C 1010.4 hPa SSW 2.7 km/h 8 km/h 77 % 0 mm
13:03 8.6 °C 4.8 °C 1010 hPa SSE 0.5 km/h 3.7 km/h 77 % 0 mm
13:08 8.7 °C 4.9 °C 1010 hPa SSE 2.9 km/h 9.3 km/h 77 % 0 mm
13:13 8.8 °C 5 °C 1009.7 hPa South 7.6 km/h 9.7 km/h 77 % 0 mm
13:18 8.9 °C 5.1 °C 1009.7 hPa SW 4.7 km/h 11.1 km/h 77 % 0 mm
13:23 8.9 °C 5.1 °C 1009.7 hPa SSW 0.6 km/h 5.6 km/h 77 % 0 mm
13:28 8.8 °C 3.6 °C 1009.7 hPa NW 6.6 km/h 8 km/h 70 % 0 mm
13:33 8.3 °C 2.1 °C 1009.4 hPa NNW 2.9 km/h 7.4 km/h 65 % 0 mm
13:38 7.8 °C 1.4 °C 1009.4 hPa NW 3.1 km/h 7.4 km/h 64 % 0 mm
13:43 7.2 °C 1.1 °C 1009 hPa NNW 4.3 km/h 7.4 km/h 65 % 0 mm
13:48 6.8 °C 0.7 °C 1008.7 hPa NW 2.6 km/h 4.8 km/h 65 % 0 mm
13:53 6.3 °C 0.7 °C 1008.7 hPa NW 2.4 km/h 4.8 km/h 67 % 0 mm
13:58 6 °C 0.6 °C 1008.4 hPa NW 1.4 km/h 3.7 km/h 68 % 0 mm
14:03 5.8 °C 0.1 °C 1008.4 hPa NW 1.3 km/h 4.8 km/h 67 % 0 mm
14:09 5.7 °C 0 °C 1008.4 hPa Calm   5.6 km/h 67 % 0 mm
14:14 5.6 °C 0.1 °C 1008.4 hPa NW 1.4 km/h 5.6 km/h 68 % 0 mm
14:19 5.4 °C -0.1 °C 1008.4 hPa NW 0.3 km/h 8 km/h 68 % 0 mm
14:24 5.3 °C -0.2 °C 1008 hPa NNW 0.3 km/h 3.7 km/h 68 % 0 mm
14:29 5.2 °C -0.1 °C 1008 hPa Calm     69 % 0 mm
14:34 5.1 °C -0.1 °C 1008 hPa Calm   1.9 km/h 69 % 0 mm
14:39 5.1 °C -0.4 °C 1007.7 hPa Calm   1.9 km/h 68 % 0 mm
14:44 5 °C 0 °C 1007.7 hPa Calm     70 % 0 mm
14:49 4.9 °C 0.1 °C 1007.7 hPa Calm     71 % 0 mm
14:54 4.9 °C -0.1 °C 1007.7 hPa Calm     70 % 0 mm
14:59 4.8 °C 0 °C 1007.3 hPa Calm     71 % 0 mm
15:04 4.8 °C -0.1 °C 1007.3 hPa Calm     71 % 0 mm
15:09 4.7 °C 0.1 °C 1007.3 hPa Calm     72 % 0 mm
15:14 4.7 °C 0.2 °C 1007 hPa Calm     73 % 0 mm
15:19 4.6 °C 0.2 °C 1007 hPa Calm     73 % 0 mm
15:24 4.6 °C 0.3 °C 1007 hPa Calm     74 % 0 mm
15:30 4.4 °C 0.4 °C 1007 hPa Calm     75 % 0 mm
15:35 4.3 °C 0.4 °C 1006.7 hPa NNW 0.2 km/h 1.9 km/h 76 % 0 mm
15:40 4.2 °C 0.7 °C 1006.3 hPa NNW 2.4 km/h 3.7 km/h 78 % 0 mm
15:45 4.1 °C 0.9 °C 1006.7 hPa NNW 0.3 km/h 3.7 km/h 80 % 0 mm
15:50 4 °C 1.1 °C 1006 hPa Calm   1.9 km/h 81 % 0 mm
15:55 3.9 °C 1.3 °C 1005.6 hPa NNW 2.7 km/h 3.7 km/h 83 % 0 mm
16:00 3.9 °C 1.5 °C 1006 hPa NNW 1.6 km/h 3.7 km/h 84 % 0 mm
16:05 3.9 °C 1.6 °C 1005.6 hPa Calm     85 % 0 mm
16:10 3.9 °C 1.6 °C 1005.6 hPa Calm   1.9 km/h 85 % 0 mm
16:15 3.9 °C 1.8 °C 1005.6 hPa Calm   1.9 km/h 86 % 0 mm
16:20 3.9 °C 1.8 °C 1005.6 hPa Calm     86 % 0 mm
16:25 3.8 °C 1.9 °C 1005.6 hPa NNW 0.8 km/h 3.2 km/h 87 % 0 mm
16:30 3.8 °C 1.9 °C 1005.6 hPa Calm     87 % 0 mm
16:35 3.8 °C 1.9 °C 1005.3 hPa Calm   3.7 km/h 87 % 0 mm
16:40 3.8 °C 2 °C 1005.3 hPa Calm     88 % 0 mm
16:45 3.8 °C 2 °C 1005.3 hPa Calm     88 % 0 mm
16:50 3.8 °C 2 °C 1005 hPa Calm     88 % 0 mm
16:55 3.8 °C 2 °C 1005 hPa Calm     88 % 0 mm
17:00 3.9 °C 2.1 °C 1004.6 hPa Calm     88 % 0 mm
17:06 3.9 °C 2.1 °C 1004.6 hPa NNW 1.6 km/h 4.8 km/h 88 % 0 mm
17:11 3.9 °C 2.3 °C 1004.3 hPa NNW 1.6 km/h 11.3 km/h 89 % 0 mm
17:16 4.7 °C 3.6 °C 1003.9 hPa SSE 4.8 km/h 11.3 km/h 93 % 0 mm
17:21 5.3 °C 4.4 °C 1003.9 hPa SSE 8 km/h 11.3 km/h 94 % 0 mm
17:26 5.7 °C 5 °C 1003.9 hPa South 1.6 km/h 8 km/h 95 % 0 mm
17:31 6.3 °C 5.6 °C 1003.6 hPa SSE 4.5 km/h 9.3 km/h 95 % 0 mm
17:36 6.6 °C 5.8 °C 1003.6 hPa SSE 3.2 km/h 11.3 km/h 95 % 0 mm
17:41 6.8 °C 6.1 °C 1003.3 hPa South 4.8 km/h 8 km/h 95 % 0 mm
17:46 7 °C 6.3 °C 1003.6 hPa South 9.8 km/h 11.1 km/h 95 % 0 mm
17:51 7.1 °C 6.5 °C 1003.3 hPa South 4.8 km/h 12.9 km/h 96 % 0 mm
17:56 7.2 °C 6.6 °C 1002.9 hPa South 8 km/h 14.5 km/h 96 % 0 mm
18:01 7.3 °C 6.6 °C 1002.9 hPa South 8.2 km/h 12.9 km/h 95 % 0 mm
18:06 7.3 °C 6.6 °C 1002.6 hPa South 3.2 km/h 12.9 km/h 95 % 0 mm
18:11 7.4 °C 6.6 °C 1002.6 hPa South 3.2 km/h 8 km/h 95 % 0 mm
18:16 7.5 °C 6.9 °C 1002.6 hPa South 8 km/h 14.5 km/h 96 % 0 mm
18:21 7.7 °C 7.1 °C 1002.3 hPa South 8 km/h 16.1 km/h 96 % 0 mm
18:26 7.7 °C 7.1 °C 1002.3 hPa South 3.2 km/h 11.3 km/h 96 % 0 mm
18:31 7.8 °C 7.2 °C 1002.3 hPa South 8 km/h 16.1 km/h 96 % 0 mm
18:36 8 °C 7.4 °C 1002.3 hPa South 9.7 km/h 19.3 km/h 96 % 0 mm
18:41 8.2 °C 7.6 °C 1001.9 hPa South 6.3 km/h 9.7 km/h 96 % 0.25 mm
18:46 8.3 °C 7.7 °C 1001.9 hPa SSE 4.8 km/h 12.9 km/h 96 % 0.25 mm
18:51 8.3 °C 7.7 °C 1001.9 hPa SE 6.8 km/h 13 km/h 96 % 1.02 mm
18:56 8.3 °C 7.7 °C 1001.9 hPa South 3.2 km/h 11.3 km/h 96 % 0 mm
19:01 8.3 °C 7.7 °C 1001.6 hPa SSE 1.1 km/h 9.3 km/h 96 % 1.27 mm
19:06 8.3 °C 7.7 °C 1001.6 hPa South 4.5 km/h 9.3 km/h 96 % 1.52 mm
19:11 8.3 °C 7.7 °C 1001.6 hPa SE 3.2 km/h 8 km/h 96 % 1.52 mm
19:16 8.2 °C 7.4 °C 1001.2 hPa SE 3.9 km/h 7.4 km/h 95 % 1.78 mm
19:21 8.2 °C 7.6 °C 1001.2 hPa SE 3.5 km/h 5.6 km/h 96 % 2.03 mm
19:26 8.2 °C 7.4 °C 1000.9 hPa South 4.8 km/h 9.3 km/h 95 % 2.03 mm
19:31 8.1 °C 7.3 °C 1000.9 hPa ESE 5.1 km/h 11.1 km/h 95 % 2.29 mm
19:36 8.1 °C 7.4 °C 1000.6 hPa SSE 0.2 km/h 5.6 km/h 96 % 2.54 mm
19:41 8 °C 7.2 °C 1000.6 hPa SE 2.4 km/h 5.6 km/h 95 % 2.54 mm
19:46 8 °C 7.2 °C 1000.2 hPa SE 1.8 km/h 5.6 km/h 95 % 2.54 mm
19:51 8 °C 7.2 °C 1000.2 hPa SE 3.7 km/h 5.6 km/h 95 % 2.29 mm
19:56 8 °C 7.2 °C 1000.6 hPa SSE 6.4 km/h 7.4 km/h 95 % 2.54 mm
20:01 8 °C 7.4 °C 1000.2 hPa SE 6.8 km/h 11.3 km/h 96 % 2.54 mm
20:06 8.1 °C 7.4 °C 999.9 hPa SE 5.5 km/h 11.1 km/h 96 % 2.54 mm
20:11 8.1 °C 7.4 °C 999.9 hPa SE 6.8 km/h 9.7 km/h 96 % 2.79 mm
20:16 8.2 °C 7.6 °C 999.5 hPa SE 7.2 km/h 14.5 km/h 96 % 2.79 mm
20:22 8.3 °C 7.7 °C 999.2 hPa SSE 8.5 km/h 13 km/h 96 % 2.79 mm
20:27 8.4 °C 7.8 °C 999.2 hPa SE 3.4 km/h 9.3 km/h 96 % 3.05 mm
20:32 8.4 °C 7.8 °C 999.2 hPa SSE 7.6 km/h 11.1 km/h 96 % 3.3 mm
20:37 8.6 °C 7.9 °C 999.2 hPa SE 7.2 km/h 16.7 km/h 96 % 3.3 mm
20:42 8.7 °C 8.2 °C 999.2 hPa SSW 5.3 km/h 9.3 km/h 97 % 3.3 mm
20:47 8.7 °C 8.2 °C 998.9 hPa SSW 3.5 km/h 11.3 km/h 97 % 3.56 mm
20:52 8.7 °C 8.3 °C 998.9 hPa South 6.1 km/h 11.1 km/h 97 % 3.56 mm
20:57 8.8 °C 8.3 °C 998.5 hPa SSE 1.3 km/h 8 km/h 97 % 3.56 mm
21:02 8.9 °C 8.4 °C 998.5 hPa South 5.8 km/h 11.1 km/h 97 % 3.56 mm
21:07 8.9 °C 8.5 °C 998.2 hPa South 3.7 km/h 13 km/h 97 % 3.56 mm
21:12 9 °C 8.6 °C 997.9 hPa SE 2.3 km/h 5.6 km/h 97 % 3.81 mm
21:17 9.1 °C 8.6 °C 997.9 hPa South 3.1 km/h 5.6 km/h 97 % 3.81 mm
21:22 9.1 °C 8.6 °C 997.5 hPa SE 3.9 km/h 5.6 km/h 97 % 3.81 mm
21:27 9.1 °C 8.6 °C 997.5 hPa South 2.1 km/h 3.2 km/h 97 % 4.06 mm
21:32 9.1 °C 8.6 °C 997.2 hPa Calm   1.9 km/h 97 % 4.06 mm
21:37 9.1 °C 8.6 °C 996.8 hPa South 2.4 km/h 3.7 km/h 97 % 4.32 mm
21:42 9.1 °C 8.6 °C 996.8 hPa SSE 2.1 km/h 5.6 km/h 97 % 4.32 mm
21:47 9.1 °C 8.7 °C 996.8 hPa WNW 3.4 km/h 6.4 km/h 97 % 4.06 mm
21:53 9.1 °C 8.7 °C 996.5 hPa Calm   3.7 km/h 97 % 4.32 mm
21:58 9.2 °C 8.7 °C 996.2 hPa SE 2.4 km/h 5.6 km/h 97 % 4.57 mm
22:03 9.2 °C 8.7 °C 995.8 hPa SE 0.6 km/h 1.9 km/h 97 % 4.57 mm
22:08 9.2 °C 8.7 °C 995.8 hPa Calm   1.9 km/h 97 % 5.08 mm
22:13 9.1 °C 8.7 °C 995.5 hPa Calm   1.9 km/h 97 % 5.59 mm
22:18 9.1 °C 8.6 °C 995.1 hPa Calm     97 % 6.1 mm
22:23 9 °C 8.6 °C 994.8 hPa ESE 1.1 km/h 3.7 km/h 97 % 6.6 mm
22:28 8.9 °C 8.5 °C 994.5 hPa Calm     97 % 6.86 mm
22:33 8.8 °C 8.2 °C 994.5 hPa Calm     96 % 6.86 mm
22:38 8.7 °C 8.1 °C 994.5 hPa NE 0.5 km/h 1.9 km/h 96 % 6.86 mm
22:43 8.4 °C 7.8 °C 994.8 hPa NE 3.5 km/h 5.6 km/h 96 % 7.11 mm
22:48 8 °C 7.2 °C 994.5 hPa Calm   3.7 km/h 95 % 7.62 mm
22:53 7.4 °C 6.7 °C 994.5 hPa NE 0.5 km/h 3.2 km/h 95 % 7.37 mm
22:58 7.1 °C 6.2 °C 994.1 hPa Calm     94 % 7.37 mm
23:03 6.8 °C 5.9 °C 994.1 hPa Calm     94 % 7.11 mm
23:08 6.6 °C 5.7 °C 993.8 hPa ENE 2.9 km/h 5.6 km/h 94 % 6.6 mm
23:13 6.3 °C 5.4 °C 993.5 hPa NNE 1 km/h 7.4 km/h 94 % 6.1 mm
23:18 6.1 °C 5.2 °C 993.5 hPa Calm   5.6 km/h 94 % 5.59 mm
23:24 5.9 °C 5 °C 993.5 hPa ENE 5.1 km/h 5.6 km/h 94 % 4.57 mm
23:29 5.6 °C 4.7 °C 993.5 hPa NE 2.1 km/h 5.6 km/h 94 % 4.32 mm
23:34 5.5 °C 4.6 °C 993.1 hPa NE 0.5 km/h 3.7 km/h 94 % 3.81 mm
23:39 5.4 °C 4.7 °C 993.1 hPa Calm   1.6 km/h 95 % 3.3 mm
23:44 5.4 °C 4.7 °C 993.5 hPa Calm   1.9 km/h 95 % 2.79 mm
23:49 5.3 °C 4.6 °C 993.5 hPa NW 7.9 km/h 13 km/h 95 % 2.29 mm
23:54 5.3 °C 4.6 °C 993.5 hPa NW 2.7 km/h 5.6 km/h 95 % 2.03 mm
23:59 5.2 °C 4.4 °C 993.5 hPa West 2.9 km/h 5.6 km/h 95 % 1.52 mm
Crab Meadow Weather
Compliments of Weather Underground - 3 mb

Script developed by  Jim McMurry - jmcmurry@mwt.net Adapted for the template by  Wim van der Kuil - Leuven-Template.eu

Astronomy: One day on Uranus is 18 hours